Torna al catalogo

SL-8 DEB

AttivoPO
NORAD 18276·DEBRIS·🇷🇺 Russia

Lanciato Jun 23, 1987 da Plesetsk Cosmodrome

Loading…

Prossimi Passaggi (prossime 24 ore)

TLE

AggiornatoSource: Space-Track

Epoca: Sep 14, 2026, 09:52 UTC

1 18276U 87054D   26257.41178032  .00000167  00000-0  15266-3 0  9993
2 18276  82.9283 224.7514 0012501 311.9904 204.9017 13.77603973967752

Traccia SL-8 DEB in tempo reale con AllMySat

Download on the App Store